This is the latest recevied weather packets stored in our database for station/object GCEMA. If no packets are shown the sender has not sent any weather packets the latest 10 day(s).
| Time | Temp. | Humidity | Pressure | Rain* | Wind** | Luminosity | Snow |
|---|---|---|---|---|---|---|---|
| 1777553018 | 11.67° C | - | 1015.7 hPa | 0 mm | 0 m/s | - | - |
| 1777552836 | 12.22° C | - | 1015.7 hPa | 0 mm | 0 m/s | - | - |
| 1777552656 | 12.22° C | - | 1015.7 hPa | 0 mm | 0 m/s | - | - |
| 1777552477 | 11.67° C | - | 1015.7 hPa | 0 mm | 0 m/s | - | - |
| 1777552297 | 11.67° C | - | 1015.7 hPa | 0 mm | 0 m/s | - | - |
| 1777552117 | 11.67° C | - | 1015.5 hPa | 0 mm | 0 m/s | - | - |
| 1777551935 | 11.67° C | - | 1015.4 hPa | 0 mm | 0 m/s | - | - |
| 1777551755 | 11.67° C | - | 1015.4 hPa | 0 mm | 0 m/s | - | - |
| 1777551576 | 11.67° C | - | 1015.4 hPa | 0 mm | 0 m/s | - | - |
| 1777551396 | 11.67° C | - | 1015.4 hPa | 0 mm | 0 m/s | - | - |
| 1777551217 | 11.11° C | - | 1015.4 hPa | 0 mm | 0 m/s | - | - |
| 1777551034 | 11.11° C | - | 1015.3 hPa | 0 mm | 0 m/s | - | - |
| 1777550855 | 11.11° C | - | 1015.2 hPa | 0 mm | 0 m/s | - | - |
| 1777550496 | 11.11° C | - | 1015.2 hPa | 0 mm | 0 m/s | - | - |
| 1777550316 | 11.67° C | - | 1015.1 hPa | 0 mm | 0 m/s | - | - |
| 1777550136 | 11.67° C | - | 1015 hPa | 0 mm | 0 m/s | - | - |
| 1777549954 | 11.67° C | - | 1015 hPa | 0 mm | 0 m/s | - | - |
| 1777549595 | 11.67° C | - | 1014.8 hPa | 0 mm | 0 m/s | - | - |
| 1777549415 | 11.67° C | - | 1014.7 hPa | 0 mm | 0 m/s | - | - |
| 1777549233 | 11.11° C | - | 1014.7 hPa | 0 mm | 0 m/s | - | - |
| 1777549054 | 11.11° C | - | 1014.8 hPa | 0 mm | 0 m/s | - | - |
| 1777548694 | 10.56° C | - | 1014.6 hPa | 0 mm | 0 m/s | - | - |
| 1777548515 | 10.56° C | - | 1014.6 hPa | 0 mm | 0 m/s | - | - |
| 1777548333 | 10.56° C | - | 1014.7 hPa | 0 mm | 0 m/s | - | - |
| 1777548153 | 11.11° C | - | 1014.6 hPa | 0 mm | 0 m/s | - | - |
* Rain latest hour (hover to see other rain measurements)
** Current wind speed in m/s (hover to see current wind gust speed)